Tracking 24120 objects as of 4-Dec-2021
HD Live streaming from Space Station
objects crossing your sky now

RUBIN 2

Track RUBIN 2 now!
10-day predictions
RUBIN 2 is classified as:


NORAD ID: 27605
Int'l Code: 2002-058A
Perigee: 607.8 km
Apogee: 695.4 km
Inclination: 64.6 °
Period: 97.6 minutes
Semi major axis: 7022 km
RCS: 0.234 m2 (medium)
Launch date: December 20, 2002
Source: Germany (GER)
Launch site: TYURATAM MISSILE AND SPACE COMPLEX (TTMTR)

Uplink (MHz): 435.275
Downlink (MHz): 145.825
Beacon (MHz):
Mode: U/1200 D/9600 MSK
Call sign:
Status: Inactive

aabbcc
Your satellite tracking list
Your tracking list is empty




NASA's NSSDC Master Catalog

Two Line Element Set (TLE):
1 27605U 02058A   21338.36161964  .00000037  00000-0  26104-4 0  9995
2 27605  64.5538 165.0802 0062368 335.5463  24.2683 14.75228860 20076
Source of the keplerian elements: AFSPC